Voltar ao catálogo

STARLINK-34417

AtivoComunicaçõesVLEO
NORAD 64617·PAYLOAD·🇺🇸 United States

Lançado Jun 25, 2025 de Cape Canaveral Space Force Station

Loading…

Próximas Passagens (próximas 24 horas)

TLE

AtualizadoSource: CelesTrak SupGP

Época: Sep 14, 2026, 23:11 UTC

1 64617C 25137Z   26257.96645833 -.00069957  00000+0 -20668-2 0  2576
2 64617  53.1579 159.7128 0001224  91.8240 181.5650 15.34427594    13

Acompanhe STARLINK-34417 em tempo real com AllMySat

Download on the App Store